TimePDT,TemperatureF,Dew PointF,Humidity,Sea Level PressureIn,VisibilityMPH,Wind Direction,Wind SpeedMPH,Gust SpeedMPH,PrecipitationIn,Events,Conditions,WindDirDegrees,DateUTC
12:04 AM,51.8,48.2,88,30.12,10.0,SW,5.8,-,N/A,,Overcast,230,2013-03-16 07:04:00
12:54 AM,50.0,48.9,96,30.16,4.0,WSW,11.5,-,N/A,,Overcast,240,2013-03-16 07:54:00
1:54 AM,48.9,48.0,97,30.14,5.0,West,4.6,-,0.01,,Overcast,260,2013-03-16 08:54:00
2:54 AM,48.9,48.0,97,30.14,4.0,SSW,4.6,-,N/A,,Overcast,210,2013-03-16 09:54:00
3:54 AM,48.9,48.0,97,30.12,5.0,WSW,5.8,-,N/A,,Overcast,240,2013-03-16 10:54:00
4:31 AM,50.0,48.2,94,30.08,10.0,West,4.6,-,N/A,,Overcast,270,2013-03-16 11:31:00
4:54 AM,50.0,48.0,93,30.10,10.0,Calm,Calm,-,N/A,,Overcast,0,2013-03-16 11:54:00
5:54 AM,48.9,46.9,93,30.09,10.0,Calm,Calm,-,N/A,,Overcast,0,2013-03-16 12:54:00
6:52 AM,46.4,44.6,93,30.06,5.0,ESE,4.6,-,N/A,,Overcast,110,2013-03-16 13:52:00
6:54 AM,46.9,45.0,93,30.10,3.0,East,4.6,-,N/A,,Overcast,100,2013-03-16 13:54:00
7:07 AM,46.4,46.4,100,30.07,2.5,East,3.5,-,N/A,,Overcast,90,2013-03-16 14:07:00
7:12 AM,46.4,46.4,100,30.06,0.5,East,4.6,-,N/A,Fog,Fog,90,2013-03-16 14:12:00
7:54 AM,45.0,44.1,97,30.10,0.8,East,4.6,-,N/A,,Mostly Cloudy,90,2013-03-16 14:54:00
8:01 AM,44.6,44.6,100,30.06,10.0,Calm,Calm,-,N/A,,Scattered Clouds,0,2013-03-16 15:01:00
8:22 AM,44.6,44.6,100,30.09,0.5,SW,3.5,-,N/A,Fog,Fog,230,2013-03-16 15:22:00
8:54 AM,46.9,46.9,100,30.14,0.8,SSE,3.5,-,N/A,,Overcast,150,2013-03-16 15:54:00
9:05 AM,48.2,46.4,93,30.10,1.0,Calm,Calm,-,N/A,,Overcast,0,2013-03-16 16:05:00
9:54 AM,48.9,48.0,97,30.15,1.0,Calm,Calm,-,N/A,,Overcast,0,2013-03-16 16:54:00
10:00 AM,48.2,48.2,100,30.11,3.0,East,3.5,-,N/A,,Overcast,100,2013-03-16 17:00:00
10:22 AM,50.0,48.2,94,30.10,5.0,Variable,3.5,-,N/A,,Overcast,0,2013-03-16 17:22:00
10:39 AM,53.6,50.0,88,30.10,10.0,Calm,Calm,-,N/A,,Scattered Clouds,0,2013-03-16 17:39:00
10:54 AM,55.0,51.1,86,30.13,10.0,Calm,Calm,-,N/A,,Partly Cloudy,0,2013-03-16 17:54:00
11:54 AM,54.0,48.0,80,30.15,7.0,West,16.1,20.7,N/A,,Mostly Cloudy,280,2013-03-16 18:54:00
12:54 PM,55.0,48.9,80,30.14,9.0,Variable,3.5,-,N/A,,Mostly Cloudy,0,2013-03-16 19:54:00
1:05 PM,55.4,48.2,77,30.11,9.0,Variable,3.5,-,N/A,,Scattered Clouds,0,2013-03-16 20:05:00
1:54 PM,64.0,51.1,63,30.11,10.0,Calm,Calm,-,N/A,,Clear,0,2013-03-16 20:54:00
2:54 PM,57.0,48.0,72,30.12,10.0,WNW,9.2,-,N/A,,Clear,290,2013-03-16 21:54:00
3:54 PM,57.9,46.9,67,30.13,10.0,West,9.2,-,N/A,,Clear,270,2013-03-16 22:54:00
4:54 PM,57.9,45.0,62,30.12,10.0,West,5.8,-,N/A,,Clear,260,2013-03-16 23:54:00
5:54 PM,57.9,44.1,60,30.12,10.0,West,6.9,-,N/A,,Clear,260,2013-03-17 00:54:00
6:54 PM,55.0,44.1,67,30.14,10.0,WSW,8.1,-,N/A,,Clear,250,2013-03-17 01:54:00
7:54 PM,53.1,44.1,71,30.14,10.0,SSW,3.5,-,N/A,,Clear,210,2013-03-17 02:54:00
8:54 PM,53.1,44.1,71,30.15,10.0,South,3.5,-,N/A,,Clear,190,2013-03-17 03:54:00
9:54 PM,52.0,44.1,74,30.17,10.0,SSW,5.8,-,N/A,,Clear,200,2013-03-17 04:54:00
10:54 PM,51.1,45.0,80,30.18,10.0,South,5.8,-,N/A,,Clear,180,2013-03-17 05:54:00
11:54 PM,50.0,45.0,83,30.18,10.0,South,5.8,-,N/A,,Clear,170,2013-03-17 06:54:00